Regional Weather Roundup
Issued by NWS Newport/Morehead, NC

Current Version | Previous Version | Text Only | Print | Product List | Glossary On
Versions: 1 2 3 4 5 6 7 8 9 10 11 12 13 14 15 16 17 18 19 20 21 22 23 24 25 26 27 28 29 30 31 32 33 34 35 36 37 38 39 40 41 42 43 44 45 46 47 48 49 50
000
ASUS42 KMHX 261325
RWRMHX
WEATHER ROUNDUP FOR EASTERN NORTH CAROLINA
NATIONAL WEATHER SERVICE NEWPORT/MOREHEAD CITY NC
900 AM EDT FRI MAY 26 2017

NOTE: "FAIR" INDICATES FEW OR NO CLOUDS BELOW 12,000 FEET
WITH NO SIGNIFICANT WEATHER AND/OR OBSTRUCTIONS TO VISIBILITY

NCZ015>017-031-032-045>047-102-103-261400-
NORTH COAST

CITY           SKY/WX    TMP DP  RH WIND       PRES   REMARKS
EDENTON        SUNNY     72  58  62 W9G22     29.86R
ELIZABETH CITY SUNNY     70  58  65 W16G23    29.82R
KITTY HAWK     SUNNY     69  56  62 W12G21    29.82R
MANTEO         SUNNY     70  56  61 W15G24    29.85R

$$

NCZ045>047-081-094-103-104-261400-
CENTRAL COAST

CITY           SKY/WX    TMP DP  RH WIND       PRES   REMARKS
FRISCO         SUNNY     73  59  61 W13G25    29.87R

$$

NCZ095-097-098-100-101-261400-
SOUTHERN COAST

CITY           SKY/WX    TMP DP  RH WIND       PRES   REMARKS
BEAUFORT       SUNNY     73  57  57 W15       29.91R
CEDAR ISLAND   NOT AVBL
JACKSONVILLE   SUNNY     70  57  63 W9G17     29.92R
PINEY ISLAND   NOT AVBL
WILMINGTON     SUNNY     69  56  62 W12       29.96R


$$

NCZ011>013-027>030-043-044-078>080-089-090>093-098-261400-
COASTAL PLAIN

CITY           SKY/WX    TMP DP  RH WIND       PRES   REMARKS
AHOSKIE          N/A     68  57  69 CALM      29.85S
CLINTON        SUNNY     69  57  65 W9        29.95R
ELIZABETHTOWN  SUNNY     69  56  61 W8        29.96R
GOLDSBORO      SUNNY     69  58  68 W15       29.90R
GREENVILLE     SUNNY     70  55  60 W9        29.91R HAZE
HAVELOCK       NOT AVBL
KENANSVILLE    SUNNY     70  55  60 W6        29.93S
KINSTON        SUNNY     70  55  60 SW6       29.92R
NEW BERN       SUNNY     71  57  61 W10       29.92R
RICHLANDS      SUNNY     71  58  63 W9        29.93R
ROCKY MOUNT    SUNNY     69  57  65 W10G17    29.89R
WASHINGTON     SUNNY     70  56  60 W14       29.89R
WHITEVILLE     SUNNY     68  55  62 W7        29.96S

$$

AMZ130-135-150-152-154-156-158-170-250-252-270-ANZ085-086-088-633-658-670-261400-
MARINE OBSERVATIONS

STATION/POSITION TIME  TEMP    WIND        PRES    WAVE   SWELL
                       AIR SEA DIR/SP/G            HT/PER HT/PER
                 (UTC) (F)     (DEG/KT/KT) (MB)    (FT/S) (FT/S)
CHESAPEAKE LIGHT NOT AVBL
64 E VA BEACH    1250   64 62  260/ 17/ 21 1009.0    7/ 7   3/ 8
DUCK             1300   69 62  260/ 21/ 27 1009.5
2 E DUCK         1300      62                N/A     2/11
OREGON INLET     1300   70 70  250/ 17/ 21 1010.1
13E OREGON INLT  1248      65                N/A     5/ 8   3/ 8
HATTERAS CG      1300   71 72  260/ 17/ 24 1011.4
DIAMOND BUOY     1250   72 79  270/ 21/ 27 1011.3    7/ 8
CAPE LOOKOUT     1300   71     270/ 17/ 21 1012.7
BEAUFORT LAB     1300   72 69  260/  5/ 12 1012.2
30 SE NEW RVR IN 1308   71 78  280/ 16/ 19 1014.0
30 SE NEW RVR IN 1313      78                N/A     7/ 8
27 SE WRIGHTSVLE 1308   70 76  260/ 14/ 19 1013.8
5 SE WRIGHTSVLE  1308   70 73  290/ 12/ 19 1014.1
225 S CAPE HAT   1250   77 76  290/ 14/ 17 1015.5    8/ 8   7/ 8
41 SE CHARLESTON 1310   72 75  300/ 12/ 16 1016.3

$$




USA.gov is the U.S. government's official web portal to all federal, state and local government web resources and services.